[[{"header":{"parameterUnit":"m.s-1","parameterCategory":1,"la1":30.2991,"la2":30.254,"lo1":-89.0895,"lo2":-89.0444,"dy":0.0017,"dx":0.0017,"nx":28,"ny":28,"refTime":"2024-04-08T09:00:00:Z","depth":0,"parameterNumber":2,"parameterNumberName":"U-component_of_WINDS"},"data":[0,0,0,0,0,0,0,0,0,0,0,0,0,0,0,0,0,0,0,0,0,0,0,0,0,0,0,0,0,0,0,0,0,0,0,0,0,0,0,0,0,0,0,0,0,0,0,0,0,0,0,0,0,0,0,0,0,0,-4.9365,-4.9366,0,-4.9483,-4.9484,-4.9486,-4.9478,-4.9476,-4.9474,-4.9473,-4.9592,-4.9597,-4.9602,0,0,0,0,0,0,0,0,0,0,0,0,0,-4.9131,-4.9136,-4.9365,-4.9366,-4.9368,-4.9483,-4.9485,-4.9486,-4.9478,-4.9476,-4.9474,-4.9472,-4.9591,-4.9596,-4.9602,0,0,0,0,0,0,0,0,0,0,0,0,0,-4.9239,-4.9137,-4.9364,-4.9378,-4.938,-4.9483,-4.9485,-4.9487,-4.9479,-4.9476,-4.9473,-4.9471,-4.9589,-4.9596,-4.9603,-4.9699,0,0,-4.9625,-4.9628,0,0,0,0,0,0,0,0,-4.9233,-4.9248,-4.9374,-4.9377,-4.938,-4.9463,-4.9446,-4.9558,-4.9479,-4.9441,-4.9473,-4.947,-4.9551,-4.9561,-4.9589,-4.9705,-4.971,-4.9625,-4.963,-4.9633,-4.9635,0,0,0,0,0,0,0,-4.9226,-4.9243,-4.9411,-4.9376,-4.9379,-4.9378,-4.939,-4.9467,-4.9509,-4.9444,-4.9444,-4.9458,-4.9552,-4.9582,-4.9592,-4.9712,-4.9625,-4.9632,-4.9636,-4.9639,-4.9914,-4.9917,0,0,0,0,0,0,-4.9216,-4.9237,-4.9408,-4.9415,-4.9299,-4.9384,-4.9398,-4.9439,-4.9508,-4.9517,-4.946,-4.9457,-4.9571,-4.9584,-4.9596,-4.9714,-4.9633,-4.964,-4.9644,-4.9911,-4.9915,-4.9918,0,0,0,0,0,0,-4.9211,-4.9231,-4.9403,-4.9326,-4.9348,-4.9391,-4.9437,-4.9443,-4.9473,-4.9521,-4.9528,-4.9483,-4.957,-4.9586,-4.9674,-4.9718,-4.9643,-4.9649,-4.9908,-4.9912,-4.9917,-4.995,0,0,0,0,0,0,-4.9204,-4.9229,-4.9266,-4.9327,-4.9352,-4.9479,-4.944,-4.9447,-4.9485,-4.9483,-4.9544,-4.9552,-4.9569,-4.9664,-4.9681,-4.9727,-4.9655,-4.9904,-4.991,-4.9915,-4.9945,-4.9955,-4.9964,0,0,0,0,0,-4.9196,-4.927,-4.9268,-4.9289,-4.9399,-4.9481,-4.9496,-4.9514,-4.9489,-4.9526,-4.9558,-4.955,-4.9711,-4.9673,-4.9693,-4.9741,-4.9901,-4.9908,-4.9915,-4.9941,-4.9953,-4.9964,0,0,0,0,0,0,-4.9212,-4.9278,-4.9276,-4.9373,-4.9422,-4.948,-4.9528,-4.9527,-4.9583,-4.9578,-4.9599,-4.9613,-4.9701,-4.973,-4.9686,-4.9839,-4.9803,-4.9814,-4.9816,-4.9828,-4.9837,-4.9827,-4.9661,0,0,0,0,0,-4.9227,-4.9289,-4.9343,-4.9423,-4.9448,-4.9484,-4.9521,-4.9531,-4.9582,-4.9603,-4.964,-4.969,-4.9752,-4.9792,-4.9851,-4.9951,-4.9964,-4.9994,-5.0003,-5.001,-5.0019,-5.0074,-5.0088,-4.994,-4.994,-4.994,0,0,-4.9258,-4.9302,-4.934,-4.9428,-4.9467,-4.953,-4.9501,-4.9569,-4.9616,-4.9613,-4.9698,-4.9728,-4.9785,-4.9879,-4.9923,-4.9906,-5.0063,-5.0019,-5.0024,-5.0029,-5.0082,-5.0096,-5.0109,-4.9945,-4.9944,-4.9943,0,0,-4.9347,-4.9387,-4.9458,-4.9499,-4.9559,-4.9583,-4.96,-4.9659,-4.9679,-4.9766,-4.9765,-4.9821,-4.9927,-4.9968,-5.0003,-5.0111,-5.0106,-5.013,-5.0177,-5.0231,-5.0242,-5.0253,-5.0291,-5.0304,-5.0139,-5.0139,-5.0139,0,-4.9378,-4.9474,-4.9495,-4.9564,-4.9603,-4.9604,-4.9676,-4.9715,-4.9791,-4.9818,-4.9799,-4.9933,-4.9971,-5.0075,-5.0102,-5.013,-5.0151,-5.0122,-5.0239,-5.025,-5.026,-5.0296,-5.031,-5.0141,-5.0141,-5.0141,-5.0141,0,-4.9509,-4.9575,-4.9626,-4.97,-4.9745,-4.9816,-4.9847,-4.9891,-4.9898,-4.9924,-5.0013,-5.006,-5.0129,-5.0156,-5.0163,-5.0261,-5.0249,-5.0235,-5.0199,-5.0276,-5.031,-5.0324,-5.0145,-5.0144,-5.0143,-5.0143,0,0,-4.9608,-4.9696,-4.9714,-4.9748,-4.9816,-4.9868,-4.9939,-5.0008,-5.0045,-5.0098,-5.0158,-5.0249,-5.0237,-5.0276,-5.0289,-5.0337,-5.0419,-5.0316,-5.0318,-5.0333,-5.053,-5.0539,-5.0555,-5.0417,-5.042,-5.0422,-5.0525,0,-4.9703,-4.9829,-4.9851,-4.9961,-5.0023,-5.0027,-5.009,-5.0138,-5.0165,-5.0222,-5.0252,-5.0316,-5.0295,-5.0319,-5.0366,-5.0399,-5.0458,-5.0392,-5.0472,-5.0475,-5.0456,-5.0573,-5.0583,-5.0677,-5.0538,-5.0541,-5.0543,0,-4.983,-4.9888,-5.0004,-5.0065,-5.0092,-5.0148,-5.0213,-5.0268,-5.0324,-5.034,-5.0386,-5.0394,-5.0468,-5.0431,-5.0534,-5.0488,-5.0523,-5.0544,-5.0548,-5.0555,-5.0512,-5.0581,-5.0708,-5.0721,-5.0564,-5.0562,-5.0561,0,-4.989,-4.9997,-5.0081,-5.0111,-5.0184,-5.0223,-5.0255,-5.0309,-5.0349,-5.0407,-5.0434,-5.0499,-5.0535,-5.0586,-5.0611,-5.0582,-5.0713,-5.0677,-5.0728,-5.0727,-5.0753,-5.075,-5.0885,-5.0778,-5.0778,-5.0778,-5.0777,0,-4.9992,-5.0063,-5.0109,-5.016,-5.024,-5.0266,-5.0344,-5.0376,-5.0424,-5.0481,-5.049,-5.0544,-5.0575,-5.0634,-5.0655,-5.0737,-5.0753,-5.0768,-5.0772,-5.0766,-5.0764,-5.0787,-5.0781,-5.0782,-5.0781,-5.078,-5.0779,0,-5.0071,-5.0105,-5.0197,-5.026,-5.0277,-5.0333,-5.0387,-5.0437,-5.0466,-5.0538,-5.0557,-5.0601,-5.0671,-5.0703,-5.0788,-5.0803,-5.0896,-5.0896,-5.0877,-5.0878,-5.0926,-5.092,-5.1078,-5.11,-5.0981,-5.0982,-5.0983,0,-5.0134,-5.0189,-5.0258,-5.0298,-5.0331,-5.0395,-5.0437,-5.0465,-5.0509,-5.0578,-5.062,-5.069,-5.0747,-5.0859,-5.0898,-5.0965,-5.0966,-5.1017,-5.0976,-5.0968,-5.0965,-5.0961,-5.0966,-5.1023,-5.1025,-5.1026,-5.1026,0,-5.0241,-5.0255,-5.0315,-5.0382,-5.0433,-5.0486,-5.0539,-5.0571,-5.0608,-5.0656,-5.0728,-5.0773,-5.0862,-5.0932,-5.1001,-5.1034,-5.1037,-5.104,-5.1055,-5.1048,-5.1034,-5.1041,-5.0895,-5.1035,-5.1034,-5.1034,-5.1033,-5.1033,-5.0313,-5.0362,-5.0419,-5.0486,-5.0529,-5.0579,-5.0629,-5.0665,-5.0725,-5.08,-5.0813,-5.089,-5.0946,-5.1039,-5.1076,-5.1136,-5.1124,-5.1146,-5.1151,-5.1155,-5.1157,-5.1026,-5.1149,-5.1149,-5.1149,-5.1149,-5.1148,0,-5.0419,-5.0456,-5.0518,-5.0592,-5.0646,-5.0645,-5.0704,-5.0748,-5.0816,-5.0868,-5.0925,-5.1009,-5.1077,-5.1123,-5.1192,-5.1232,-5.1235,-5.1249,-5.1245,-5.1253,-5.1165,-5.1145,-5.1245,-5.1245,-5.1245,-5.1245,-5.1245,-5.1245,-5.048,-5.0563,-5.0585,-5.069,-5.0727,-5.0802,-5.0836,-5.0882,-5.0924,-5.1017,-5.1074,-5.1104,-5.1154,-5.1228,-5.1291,-5.1303,-5.1327,-5.1342,-5.1353,-5.1269,-5.1259,-5.1249,-5.123,-5.1347,-5.1347,-5.1435,-5.1436,-5.1437]},{"header":{"parameterUnit":"m.s-1","parameterCategory":1,"la1":30.2991,"la2":30.254,"lo1":-89.0895,"lo2":-89.0444,"dy":0.0017,"dx":0.0017,"nx":28,"ny":28,"refTime":"2024-04-08T09:00:00:Z","depth":0,"parameterNumber":3,"parameterNumberName":"V-component_of_WINDS"},"data":[0,0,0,0,0,0,0,0,0,0,0,0,0,0,0,0,0,0,0,0,0,0,0,0,0,0,0,0,0,0,0,0,0,0,0,0,0,0,0,0,0,0,0,0,0,0,0,0,0,0,0,0,0,0,0,0,0,0,2.2102,2.2102,0,2.2055,2.2055,2.2054,2.2045,2.2045,2.2046,2.2046,2.1996,2.1995,2.1993,0,0,0,0,0,0,0,0,0,0,0,0,0,2.2184,2.2183,2.2102,2.2102,2.2101,2.2055,2.2055,2.2054,2.2045,2.2045,2.2046,2.2046,2.1997,2.1995,2.1993,0,0,0,0,0,0,0,0,0,0,0,0,0,2.2144,2.2182,2.2102,2.2091,2.209,2.2055,2.2055,2.2054,2.2045,2.2045,2.2046,2.2046,2.1997,2.1995,2.1992,2.1966,0,0,2.1985,2.1984,0,0,0,0,0,0,0,0,2.2146,2.2141,2.2093,2.2092,2.209,2.2057,2.2065,2.2024,2.2045,2.2062,2.2046,2.2047,2.2016,2.2012,2.2002,2.1963,2.1961,2.1985,2.1983,2.1982,2.1981,0,0,0,0,0,0,0,2.2149,2.2143,2.2084,2.2093,2.2091,2.2088,2.2083,2.2057,2.2036,2.206,2.2059,2.2054,2.2015,2.2004,2.2,2.1961,2.1985,2.1982,2.1981,2.198,2.1901,2.19,0,0,0,0,0,0,2.2154,2.2145,2.2085,2.2082,2.212,2.2086,2.2081,2.2067,2.2036,2.2032,2.2054,2.2054,2.2008,2.2003,2.1999,2.1967,2.1982,2.198,2.1978,2.1901,2.1901,2.19,0,0,0,0,0,0,2.2156,2.2149,2.2087,2.2114,2.2106,2.2084,2.2069,2.2065,2.2055,2.2031,2.2027,2.2047,2.2008,2.2002,2.1975,2.1965,2.1978,2.1976,2.1902,2.1901,2.19,2.1902,0,0,0,0,0,0,2.2158,2.2149,2.2139,2.2113,2.2104,2.2064,2.2068,2.2064,2.205,2.205,2.2024,2.202,2.2008,2.1979,2.1972,2.1962,2.1974,2.1903,2.1902,2.1901,2.1903,2.1901,2.19,0,0,0,0,0,2.2161,2.214,2.2138,2.2131,2.2091,2.2063,2.2058,2.2045,2.205,2.2039,2.2025,2.2021,2.1967,2.1976,2.1969,2.1957,2.1903,2.1902,2.1901,2.1903,2.1902,2.19,0,0,0,0,0,0,2.2163,2.2137,2.2134,2.2104,2.2086,2.2062,2.2048,2.2044,2.2023,2.2024,2.2009,2.2003,2.1977,2.1964,2.1974,2.1931,2.1936,2.1933,2.194,2.1938,2.1937,2.194,2.1972,0,0,0,0,0,2.2161,2.2141,2.2119,2.2095,2.2086,2.2069,2.2056,2.2048,2.2029,2.2021,2.2004,2.1985,2.1964,2.1951,2.193,2.1901,2.1896,2.189,2.1889,2.1888,2.1886,2.1872,2.1869,2.1896,2.1896,2.1896,0,0,2.2154,2.2137,2.2126,2.2095,2.208,2.206,2.2062,2.204,2.2025,2.2017,2.1991,2.1978,2.1956,2.1929,2.1916,2.1917,2.1877,2.1886,2.1886,2.1884,2.187,2.1867,2.1865,2.1895,2.1895,2.1895,0,0,2.2133,2.2118,2.2097,2.2083,2.2061,2.205,2.2045,2.2022,2.2013,2.1987,2.1981,2.1964,2.1927,2.1913,2.19,2.1877,2.1873,2.187,2.1863,2.185,2.1848,2.1846,2.1838,2.1836,2.1868,2.1868,2.1868,0,2.2128,2.2098,2.2087,2.2066,2.2053,2.2047,2.2026,2.2012,2.1985,2.1976,2.1979,2.1935,2.1919,2.1889,2.1884,2.1874,2.1869,2.1873,2.1849,2.1847,2.1845,2.1838,2.1835,2.1868,2.1868,2.1868,2.1868,0,2.2093,2.2073,2.2059,2.2034,2.2019,2.1998,2.1985,2.1972,2.1966,2.1955,2.193,2.1911,2.1888,2.188,2.1874,2.185,2.1852,2.1852,2.1856,2.1842,2.1836,2.1833,2.1868,2.1868,2.1868,2.1868,0,0,2.207,2.2041,2.2036,2.2025,2.2002,2.1986,2.1966,2.1944,2.1934,2.1916,2.1899,2.187,2.1871,2.1857,2.1849,2.1837,2.1822,2.1839,2.1838,2.1837,2.1796,2.1796,2.1793,2.182,2.1819,2.1818,2.1798,0,2.2046,2.201,2.2001,2.1971,2.1953,2.1947,2.193,2.1914,2.1904,2.1888,2.1877,2.1857,2.1859,2.1851,2.1839,2.1826,2.1813,2.1828,2.1804,2.1803,2.181,2.1789,2.1789,2.177,2.1795,2.1795,2.1794,0,2.2013,2.1996,2.1964,2.1945,2.1937,2.1922,2.1902,2.1886,2.1869,2.1863,2.1849,2.1843,2.1823,2.1829,2.1802,2.1812,2.1802,2.1795,2.1794,2.1791,2.1798,2.1786,2.1764,2.1761,2.179,2.179,2.179,0,2.2,2.1969,2.1947,2.1938,2.1915,2.1905,2.1895,2.1878,2.1866,2.1849,2.1842,2.1822,2.1812,2.1797,2.1787,2.1792,2.1761,2.1766,2.1756,2.1756,2.1749,2.1749,2.1725,2.1742,2.1742,2.1743,2.1743,0,2.1974,2.1955,2.1941,2.1927,2.1906,2.1896,2.1876,2.1866,2.1852,2.1836,2.1831,2.1816,2.1803,2.1788,2.1779,2.1759,2.1754,2.1749,2.1747,2.1749,2.175,2.1742,2.1743,2.1742,2.1742,2.1742,2.1742,0,2.1956,2.1946,2.1921,2.1903,2.1898,2.1883,2.1868,2.1854,2.1845,2.1826,2.1821,2.1806,2.1788,2.1777,2.1752,2.1747,2.1725,2.1723,2.1731,2.173,2.1721,2.1722,2.169,2.1686,2.1706,2.1706,2.1706,0,2.1941,2.1926,2.1907,2.1897,2.1887,2.187,2.1859,2.1849,2.1838,2.1819,2.1808,2.179,2.1774,2.1745,2.1732,2.1715,2.1713,2.1703,2.171,2.1714,2.1713,2.1714,2.1713,2.1702,2.1701,2.1701,2.1701,0,2.1914,2.191,2.1894,2.1877,2.1864,2.185,2.1836,2.1828,2.1816,2.1804,2.1785,2.1774,2.1751,2.1732,2.1714,2.1704,2.1701,2.17,2.1696,2.1699,2.1704,2.1702,2.1728,2.17,2.17,2.17,2.17,2.17,2.1897,2.1885,2.187,2.1853,2.1842,2.183,2.1817,2.1807,2.1792,2.1773,2.1768,2.1749,2.1735,2.171,2.17,2.1685,2.1687,2.1682,2.1681,2.168,2.168,2.1707,2.1682,2.1682,2.1682,2.1682,2.1682,0,2.1871,2.1862,2.1847,2.1828,2.1815,2.1815,2.18,2.1789,2.1772,2.1759,2.1745,2.1725,2.1708,2.1695,2.1678,2.1669,2.1668,2.1665,2.1666,2.1664,2.1679,2.1684,2.1667,2.1667,2.1667,2.1667,2.1667,2.1667,2.1856,2.1836,2.1831,2.1806,2.1797,2.1779,2.177,2.1759,2.1749,2.1727,2.1713,2.1706,2.1693,2.1676,2.1661,2.1657,2.1652,2.165,2.1646,2.1661,2.1662,2.1664,2.1668,2.1648,2.1648,2.1632,2.1632,2.1632]}]]